This demonstration page uses our WeatherBlox Daily Observations layout. Learn more.

Left ArrowRight Arrow

36.17497, -115.13722

Hourly Observations for February 10, 2020

Temp ( °F °C ) Dew Point ( °F °C ) Humidity (%) Winds ( mph kmh ) Pressure ( in mb ) Visibility ( mi km ) Precip ( " mm )
12:53 am 00:53 Cloudy 45 7.2 34 1.1 66 66 NW 22 35 30.03 1017 10 16.0934 0.03 0.762
1:53 am 01:53 Cloudy 45 7.2 32 0 61 61 NW 17 28 30.04 1017 10 16.0934 0 0
2:53 am 02:53 Mostly Clear 46 7.8 30 -1.1 54 54 NNW 15 24 30.02 1017 10 16.0934 0.001 0.001
3:53 am 03:53 Clear 46 7.8 28 -2.2 50 50 NNW 13 20 30.02 1017 10 16.0934 0 0
4:53 am 04:53 Clear 46 7.8 26 -3.3 46 46 NW 16 26 30.02 1017 10 16.0934 0 0
5:53 am 05:53 Clear 47 8.3 20 -6.7 34 34 NNW 15 24 30.03 1017 10 16.0934 0 0
6:53 am 06:53 Sunny 47 8.3 16 -8.9 29 29 NNW 20 31 30.04 1017 10 16.0934 0 0
7:53 am 07:53 Partly Cloudy 49 9.4 14 -10 25 25 NNW 23 37 30.06 1018 10 16.0934 0 0
8:53 am 08:53 Mostly Sunny 51 10.6 13 -10.6 22 22 NNW 20 31 30.07 1018 10 16.0934 0 0
9:53 am 09:53 Sunny 55 12.8 13 -10.6 19 19 NNW 25 41 30.05 1018 10 16.0934 0 0
10:53 am 10:53 Sunny 57 13.9 15 -9.4 19 19 NNW 17 28 30.05 1018 10 16.0934 0 0
11:53 am 11:53 Sunny 60 15.6 16 -8.9 18 18 NNW 20 31 30.01 1016 10 16.0934 0 0
12:53 pm 12:53 Sunny 63 17.2 18 -7.8 17 17 NNW 12 19 30 1016 10 16.0934 0 0
1:53 pm 13:53 Sunny 64 17.8 15 -9.4 15 15 NW 13 20 29.97 1015 10 16.0934 0 0
2:53 pm 14:53 Sunny 64 17.8 18 -7.8 17 17 ENE 9 15 29.97 1015 10 16.0934 0 0
3:53 pm 15:53 Sunny 65 18.3 7 -13.9 10 10 NW 16 26 29.96 1014 10 16.0934 0 0
4:53 pm 16:53 Sunny 64 17.8 4 -15.6 9 9 NW 15 24 29.96 1014 10 16.0934 0 0
5:53 pm 17:53 Clear 61 16.1 4 -15.6 10 10 N 9 15 29.97 1015 10 16.0934 0 0
6:53 pm 18:53 Clear 60 15.6 5 -15 11 11 NW 10 17 29.98 1015 10 16.0934 0 0
7:53 pm 19:53 Clear 56 13.3 9 -12.8 15 15 ENE 10 17 30.01 1016 10 16.0934 0 0
8:53 pm 20:53 Clear 54 12.2 13 -10.6 19 19 NE 20 31 30.04 1017 10 16.0934 0 0
9:53 pm 21:53 Clear 54 12.2 14 -10 20 20 NE 13 20 30.07 1018 10 16.0934 0 0
10:45 pm 22:45 Clear 53 11.7 15 -9.4 22 22 N 14 22 30.05 1018 10 16.0934 0 0
10:53 pm 22:53 Clear 52 11.1 15 -9.4 23 23 N 12 19 30.1 1019 10 16.0934 0 0
11:23 pm 23:23 Clear 51 10.6 16 -8.9 25 25 NE 15 24 30.08 1019 10 16.0934 0 0
11:53 pm 23:53 Clear 51 10.6 15 -9.4 24 24 NNE 23 37 30.12 1020 10 16.0934 0 0

Powered by AerisWeather